EHI
0 0 0 0 0 0 0 0 0 0 0 0 0 0 0 0 0 0 0 0 0 0 0 0 0 0 0 0 0 0 0 0 0 0 0 0 0 0 0 0 0 0 0 0
0 0 0 0 0 0 0 0 0 0 0 0 0 0 0 0 0 0 0 0 0 0 0 0 0 0 0 0 0 0 0 0 0 0 0 0 0 0 0 0 0 0 0 0
0 0 0 0 0 0 0 0 0 0 0 0 0 0 0 0 0 0 0 0 0 0 0 0 0 0 0 0 0 0 0 0 0 0 0 0 0 0 0 0 0 0 0 0
0 0 0 0 0 0 0 0 0 0 0 0 0 0 0 0 0 0 0 0 0 0 0 0 0 0 0 0 0 0 0 0 0 0 0 0 0 0 0 0 0 0 0 0
0 0 0 0 0 0 0 0 0 0 0 0 0 0 0 0 0 0 0 0 0 0 0 0 0 0 0 0 0 0 0 0 0 0 0 0 0 0 0 0 0 0 0 0
0 0 0 0 0 0 0 0 0 0 0 0 0 0 0 0 0 0 0 0 0 0 0 0 0 0 0 0 0 0 0 0 0 0 0 0 0 0 0 0 0 0 0 0
0 0 0 0 0 0 0 0 0 0 0 0 0 0 0 0 0 0 0 0 0 0 0 0 0 0 0 0 0 0 0 0 0 0 0 0 0 0 0 0 0 0 0 0
0 0 0 0 0 0 0 0 0 0 0 0 0 0 0 0 0 0 0 0 0 0 0 0 0 0 0 0 0 0 0 0 0 0 0 0 0 0 0 0 0 0 0 0
0 0 0 0 0 0 0 0 0 0 0 0 0 0 0 0 0 0 0 0 0 0 0 0 0 0 0 0 0 0 0 0 0 0 0 0 0 0 0 0 0 0 0 0
0 0 0 0 0 0 0 0 0 0 0 0 0 0 0 0 0 0 0 0 0 0 0 0 0 0 0 0 0 0 0 0 0 0 0 0 0 0 0 0 0 0 0 0
0 0 0 0 0 0 0 0 0 0 0 0 0 0 0 0 0 0 0 0 0 0 0 0 0 0 0 0 0 0 0 0 0 0 0 0 0 0 0 0 0 0 0 0
0 0 0 0 0 0 0 0 0 0 0 0 0 0 0 0 0 0 0 0 0 0 0 0 0 0 0 0 0 0 0 0 0 0 0 0 0 0 0 0 0 0 0 0
0 0 0 0 0 0 0 0 0 0 0 0 0 0 0 0 0 0 0 0 0 0 0 0 0 0 0 0 0 0 0 0 0 0 0 0 0 0 0 0 0 0 0 0
0 0 0 0 0 0 0 0 0 0 0 0 0 0 0 0 0 0 0 0 0 0 0 0 0 0 0 0 0 0 0 0 0 0 0 0 0 0 0 0 0 0 0 0
0 0 0 0 0 0 0 0 0 0 0 0 0 0 0 0 0 0 0 0 0 0 0 0 0 0 0 0 0 0 0 0 0 0 0 0 0 0 0 0 0 0 0 0
0 0 0 0 0 0 0 0 0 0 0 0 0 0 0 0 0 0 0 0 0 0 0 0 0 0 0 0 0 0 0 0 0 0 0 0 0 0 0 0 0 0 0 0
0 0 0 0 0 0 0 0 0 0 0 0 0 0 0 0 0 0 0 0 0 0 0 0 0 0 0 0 0 0 0 0 0 0 0 0 0 0 0 0 0 0 0 0
0 0 0 0 0 0 0 0 0 0 0 0 0 0 0 0 0 0 0 0 0 0 0 0 0 0 0 0 0 0 0 0 0 0 0 0 0 0 0 0 0 0 0 0
0 0 0 0 0 0 0 0 0 0 0 0 0 0 0 0 0 0 0 0 0 0 0 0 0 0 0 0 0 0 0 0 0 0 0 0 0 0 0 0 0 0 0 0
0 0 0 0 0 0 0 0 0 0 0 0 0 0 0 0 0 0 0 0 0 0 0 0 0 0 0 0 0 0 0 0 0 0 0 0 0 0 0 0 0 0 0 0
0 0 0 0 0 0 0 0 0 0 0 0 0 0 0 0 0 0 0 0 0 0 0 0 0 0 0 0 0 0 0 0 0 0 0 0 0 0 0 0 0 0 0 0
0 0 0 0 0 0 0 0 0 0 0 0 0 0 0 0 0 0 0 0 0 0 0 0 0 0 0 0 0 0 0 0 0 0 0 0 0 0 0 0 0 0 0 0
0 0 0 0 0 0 0 0 0 0 0 0 0 0 0 0 0 0 0 0 0 0 0 0 0 0 0 0 0 0 0 0 0 0 0 0 0 0 0 0 0 0 0 0
0 0 0 0 0 0 0 0 0 0 0 0 0 0 0 0 0 0 0 0 0 0 0 0 0 0 0 0 0 0 0 0 0 0 0 0 0 0 0 0 0 0 0 0
0 0 0 0 0 0 0 0 0 0 0 0 0 0 0 0 0 0 0 0 0 0 0 0 0 0 0 0 0 0 0 0 0 0 0 0 0 0 0 0 0 0 0 0
0 0 0 0 0 0 0 0 0 0 0 0 0 0 0 0 0 0 0 0 0 0 0 0 0 0 0 0 0 0 0 0 0 0 0 0 0 0 0 0 0 0 0 0
0 0 0 0 0 0 0 0 0 0 0 0 0 0 0 0 0 0 0 0 0 0 0 0 0 0 0 0 0 0 0 0 0 0 0 0 0 0 0 0 0 0 0 0
Wind_Speed
3 4 3 3 4 3 2 3 3 4 4 6 8 7 7 7 7 7 6 5 4 4 4 3 3 2 1 0 1 2 3 4 4 4 5 6 6 6 6 6 6 6 6 6
3 2 2 2 4 3 3 3 3 4 5 5 5 5 6 8 7 7 7 6 5 4 4 4 3 2 2 1 1 2 3 4 4 5 6 6 6 7 7 7 6 6 6 6
3 5 3 3 2 1 1 2 2 3 4 6 7 8 7 7 7 7 7 7 7 6 5 5 4 3 2 2 2 3 3 4 5 5 6 6 6 7 6 6 6 6 5 5
1 3 2 3 1 1 1 1 2 3 5 6 7 7 4 4 6 8 8 8 7 7 6 5 4 3 2 1 3 3 3 4 4 5 6 6 6 6 5 5 5 5 5 5
1 1 5 3 1 1 2 2 2 4 7 8 8 5 3 4 6 6 6 6 6 6 5 5 4 2 1 1 2 3 4 4 5 6 7 7 7 6 4 5 4 4 4 5
1 1 5 3 2 2 1 3 2 4 6 8 7 5 5 7 8 8 7 6 6 5 5 4 4 2 0 1 2 3 4 4 4 5 6 7 6 5 4 4 4 4 4 3
2 3 6 3 3 1 2 4 3 4 5 6 5 5 7 9 7 6 6 6 6 5 5 5 4 2 1 1 2 2 2 3 4 5 5 6 6 4 5 5 5 4 4 3
4 4 7 1 1 2 3 2 3 4 5 6 7 8 8 8 8 8 7 6 6 5 5 5 4 2 1 2 2 0 2 3 4 5 5 5 6 5 5 6 5 4 3 3
6 6 2 1 2 2 1 2 3 4 6 7 8 8 8 8 8 7 6 6 4 4 5 5 4 3 2 3 1 1 2 3 3 4 4 5 6 6 5 5 4 4 4 3
4 5 3 3 2 1 1 2 4 5 6 6 7 8 8 7 7 6 6 5 4 4 4 5 4 4 2 2 1 1 2 2 3 4 4 4 4 4 4 5 5 4 4 4
4 4 2 3 3 2 2 3 4 5 5 6 7 8 8 7 7 6 5 4 4 3 3 4 4 4 4 3 1 1 1 2 2 3 3 3 3 3 4 4 5 6 5 5
7 5 4 4 2 1 2 3 4 5 6 6 6 7 7 6 5 5 5 4 3 3 3 4 4 4 4 3 2 1 1 1 2 2 2 3 3 2 3 4 6 8 8 7
4 2 3 2 2 1 2 4 4 4 5 7 6 6 6 5 5 5 4 4 3 3 3 3 3 4 4 3 2 1 1 1 1 2 2 2 2 3 2 2 4 6 8 9
3 3 1 2 2 2 3 3 4 4 4 5 5 5 5 5 5 4 4 4 3 3 3 3 3 4 4 3 2 1 0 0 1 1 2 2 2 2 2 2 2 2 4 7
4 4 3 2 1 2 2 3 4 4 5 5 5 5 5 5 5 5 4 3 3 3 3 3 3 4 4 3 1 1 1 0 0 1 1 1 2 2 2 3 3 2 1 3
4 3 2 2 2 2 2 3 4 5 5 5 5 6 6 5 4 4 3 3 2 3 3 3 4 4 4 3 2 1 1 1 1 1 1 1 2 2 2 2 2 2 3 2
5 4 4 3 3 3 3 4 4 5 5 5 6 6 6 5 4 3 3 3 2 2 3 3 4 4 4 3 2 1 1 1 2 1 1 1 2 2 2 2 3 3 3 3
6 5 4 4 3 4 4 4 4 4 4 5 5 5 5 5 4 4 4 3 2 3 3 3 4 4 3 3 2 1 1 1 1 1 1 1 1 1 2 2 2 3 2 2
5 4 4 3 3 3 4 4 4 4 4 4 4 4 4 4 4 4 3 3 3 4 4 4 6 4 4 4 3 1 1 1 1 1 1 2 2 1 1 2 2 2 2 2
4 3 3 3 2 3 3 4 4 4 3 3 3 4 4 4 4 3 3 3 3 3 4 4 4 3 4 4 4 2 1 2 2 2 2 2 2 2 1 2 2 2 2 2
4 3 3 3 3 3 3 3 3 4 4 3 3 4 5 4 4 3 3 3 3 3 3 5 3 3 3 4 4 2 2 2 2 2 2 2 2 2 2 2 2 2 2 2
3 3 3 2 3 3 3 3 3 3 3 3 4 4 4 4 4 3 3 3 3 5 3 2 3 4 5 5 2 2 2 2 2 2 2 2 2 2 2 2 2 2 2 2
3 3 3 3 3 3 3 2 3 3 4 4 4 4 4 4 3 3 4 3 2 5 3 3 5 7 7 3 1 2 2 2 2 2 2 2 2 2 2 2 2 2 2 3
3 3 2 2 1 2 3 3 3 3 4 4 4 4 4 4 3 3 3 5 6 6 3 5 7 7 6 2 2 2 2 2 2 2 2 2 2 2 2 2 2 3 3 3
3 2 2 2 3 3 4 3 3 3 3 3 4 4 3 3 3 3 3 4 6 6 3 5 7 7 3 2 2 2 2 2 3 2 2 2 2 2 3 3 3 3 3 3
3 3 3 3 3 3 2 2 2 3 3 3 4 3 3 2 3 3 3 3 4 5 3 2 3 3 2 2 2 2 2 3 3 3 2 3 3 3 3 3 4 4 4 4
2 2 2 2 2 2 2 2 3 3 3 3 4 3 3 3 3 3 3 3 3 3 2 2 2 2 2 2 2 2 2 2 3 3 3 3 3 3 3 4 4 4 4 4
Wind_Direction
265 273 266 270 282 280 234 227 230 271 288 310 326 330 335 342 349 354 352 354 354 341 334 336 341 342 343 15 88 118 130 132 137 132 126 125 123 122 121 121 124 125 122 117
317 324 287 282 284 275 266 268 263 284 293 309 318 334 344 346 352 354 346 340 339 333 324 315 306 304 306 257 158 132 139 143 135 130 127 129 129 126 122 120 120 120 121 124
302 318 335 300 285 255 270 281 268 275 294 330 333 337 336 342 352 346 339 338 336 329 318 310 300 280 264 239 173 153 150 144 141 141 140 139 134 130 130 129 124 121 123 126
321 5 281 262 320 281 253 328 344 322 327 332 321 314 324 344 344 339 336 333 330 326 319 314 306 294 265 201 169 164 159 153 152 148 146 143 139 139 136 131 131 131 134 132
104 293 281 290 318 348 295 299 12 330 329 332 329 324 331 353 345 328 323 319 315 313 308 310 312 305 252 186 170 170 175 171 168 158 153 151 150 146 137 133 131 134 137 143
137 223 250 258 284 305 202 274 349 341 336 335 342 340 319 337 333 330 328 325 325 326 327 327 326 328 207 204 187 203 201 185 170 164 161 160 155 146 137 139 143 142 142 152
189 238 265 262 296 353 173 271 329 332 329 331 320 293 301 315 321 325 324 325 331 335 337 330 328 332 309 246 236 233 186 160 159 161 160 153 145 142 144 143 143 147 153 162
179 216 255 256 83 154 237 303 311 311 313 311 304 308 314 318 321 327 329 332 337 339 340 338 343 358 352 320 303 202 153 154 155 152 148 146 146 145 147 150 153 159 166 178
197 216 237 204 196 216 226 277 292 300 306 308 308 311 314 315 319 324 326 331 337 340 341 347 354 7 356 332 342 115 132 146 146 141 141 148 152 154 155 162 167 176 180 194
244 252 240 238 226 242 263 275 297 304 305 308 307 311 314 314 316 321 325 328 333 341 348 348 352 358 351 337 358 100 132 142 140 141 143 148 155 163 171 178 182 185 191 202
243 257 268 243 222 255 309 320 323 322 317 316 313 310 310 309 312 315 320 326 335 338 342 341 350 356 355 359 25 85 117 131 137 144 153 160 170 185 192 199 194 192 196 194
214 212 196 232 232 245 284 303 313 319 321 322 314 307 309 310 312 314 317 324 332 337 342 345 352 351 352 357 16 93 117 133 148 155 162 167 172 188 214 214 217 218 211 203
196 186 191 233 233 234 262 293 306 310 309 313 316 316 316 313 313 315 317 326 329 331 339 350 355 352 347 346 1 48 129 163 162 167 172 177 180 186 204 226 229 231 228 227
181 145 199 215 229 264 278 295 305 307 307 314 317 320 320 316 316 321 324 328 331 341 350 353 355 349 343 344 357 22 57 172 183 192 192 191 195 198 200 207 225 241 239 238
199 193 206 227 257 287 303 314 313 314 321 324 324 324 320 315 313 315 321 331 344 359 356 352 353 344 343 348 354 357 8 352 207 198 194 201 203 202 208 216 224 230 238 252
185 191 203 214 244 277 300 302 302 307 314 316 318 320 317 310 308 315 327 340 349 351 347 347 343 336 341 344 345 341 329 328 317 226 212 211 209 210 217 222 225 226 231 233
166 194 206 224 241 259 265 274 284 293 300 305 309 312 316 316 316 322 332 341 349 342 339 337 330 333 339 340 335 324 319 312 320 292 248 232 224 222 223 225 231 235 237 235
190 193 194 203 221 248 265 274 281 287 290 295 306 313 318 317 311 312 319 327 338 342 340 334 334 336 334 331 325 313 309 304 293 280 277 266 249 236 231 233 237 244 250 253
185 189 198 210 221 231 247 262 272 278 284 294 300 301 302 303 306 310 316 320 320 318 322 326 335 341 329 325 327 311 301 296 293 287 276 276 273 253 244 245 249 250 251 248
178 185 199 219 228 230 248 260 269 276 280 283 290 295 298 297 298 303 308 302 290 287 302 315 325 320 316 315 322 302 292 283 280 282 279 269 265 263 262 264 263 263 261 261
186 194 207 227 250 256 253 255 260 269 278 277 276 281 287 292 294 295 296 296 295 297 306 319 321 310 307 311 317 302 293 293 292 284 281 276 271 266 264 268 272 274 273 273
187 197 214 228 246 266 269 260 255 264 275 278 278 279 283 288 291 288 272 267 287 308 312 301 298 304 311 316 311 304 297 293 291 286 279 277 274 271 269 268 270 276 277 278
187 198 212 225 239 257 274 271 263 259 263 269 274 275 273 274 276 277 286 281 284 302 307 291 300 309 317 324 311 303 299 295 292 291 289 285 280 274 272 271 272 275 274 275
187 201 216 225 230 251 268 272 269 262 262 268 268 266 267 276 276 255 256 290 301 304 297 299 308 312 319 314 298 292 287 286 283 280 278 276 272 270 271 271 272 276 276 277
191 197 203 213 233 245 253 267 278 275 273 272 273 270 261 251 260 275 276 283 296 304 299 303 310 315 316 294 287 285 283 275 269 268 263 266 268 267 267 267 268 269 268 267
195 207 216 221 229 242 246 249 259 269 272 278 280 272 267 264 263 270 275 278 284 297 296 289 296 306 299 291 285 284 285 293 301 294 277 270 266 265 266 268 270 268 268 268
204 216 228 246 244 233 234 240 252 264 265 269 280 280 276 275 272 272 274 278 283 287 287 288 287 288 290 290 290 288 284 282 280 277 275 269 264 262 264 266 266 266 266 266